Dayton Wright, OH

7:19 AM EDT on September 20, 2017 (GMT -0400)
Dayton-Wright Brothers

Weather History for KMGY - April, 2014

Change the Weather History Date:

Thursday, April 17, 2014

  Actual Average (KFFO) Record (KFFO)
Temperature  
Mean Temperature 51 °F -  
Max Temperature 66 °F 62 °F 82 °F (2004)
Min Temperature 36 °F 41 °F 30 °F (2001)
Degree Days  
Heating Degree Days 14    
Growing Degree Days 1 (Base 50)    
Moisture  
Dew Point 30 °F    
Average Humidity 45    
Maximum Humidity 62    
Minimum Humidity 30    
Precipitation  
Precipitation 0.00 in - - ()
Sea Level Pressure  
Sea Level Pressure 30.30 in    
Wind  
Wind Speed 8 mph (SSE)    
Max Wind Speed 18 mph    
Max Gust Speed 24 mph    
Visibility 10 miles    
Events      
Averages and records for this station are not official NWS values.
T = Trace of Precipitation, MM = Missing Value Source: NWS Daily Summary

Daily Weather History Graph

Daily Weather History Graph

Search for Another Location

Airport or City:

Trip Planner

Search our weather history database for the weather conditions in past years. The results will help you decide how hot, cold, wet, or windy it might be!

Date:

Astronomy

Apr. 17, 2014 Rise Set
Actual Time 6:56 AM EDT 8:16 PM EDT
Civil Twilight 6:28 AM EDT 8:44 PM EDT
Nautical Twilight 5:55 AM EDT 9:18 PM EDT
Astronomical Twilight 5:19 AM EDT 9:53 PM EDT
Moon 11:01 PM EDT (4/17) 8:28 AM EDT (4/17)
Length of Visible Light 14h 16m
Length of Day
13h 20m
Waning Gibbous, 94% of the Moon is Illuminated
Apr 17
Waning Gibbous
Apr 22
Last Quarter
Apr 29
New
May 6
First Quarter
May 14
Full

Hourly Weather History & Observations

Time (EDT) Temp. Windchill Dew Point Humidity Pressure Visibility Wind Dir Wind Speed Gust Speed Precip Events Conditions
12:53 AM 39.9 °F 35.1 °F 23.0 °F 51% 30.29 in 10.0 mi East 6.9 mph - N/A   Clear
1:53 AM 39.0 °F 34.0 °F 23.0 °F 53% 30.29 in 10.0 mi East 6.9 mph - N/A   Clear
2:53 AM 37.9 °F 30.9 °F 24.1 °F 57% 30.27 in 10.0 mi East 10.4 mph - N/A   Clear
3:53 AM 37.9 °F 31.5 °F 23.0 °F 55% 30.27 in 10.0 mi ESE 9.2 mph - N/A   Clear
4:53 AM 37.0 °F 32.4 °F 23.0 °F 57% 30.28 in 10.0 mi SE 5.8 mph - N/A   Clear
5:53 AM 37.0 °F 34.5 °F 23.0 °F 57% 30.30 in 10.0 mi SE 3.5 mph - N/A   Clear
6:53 AM 36.0 °F 30.3 °F 24.1 °F 62% 30.31 in 10.0 mi SSE 6.9 mph - N/A   Clear
7:53 AM 39.0 °F 32.3 °F 26.1 °F 60% 30.33 in 10.0 mi South 10.4 mph - N/A   Clear
8:53 AM 46.0 °F 39.9 °F 28.0 °F 50% 30.34 in 10.0 mi South 13.8 mph - N/A   Clear
9:53 AM 51.1 °F - 30.0 °F 44% 30.35 in 10.0 mi South 13.8 mph - N/A   Clear
10:53 AM 55.0 °F - 30.0 °F 38% 30.35 in 10.0 mi SW 18.4 mph 23.0 mph N/A   Clear
1:53 PM 63.0 °F - 34.0 °F 34% 30.32 in 10.0 mi SW 8.1 mph - N/A   Clear
2:53 PM 64.9 °F - 35.1 °F 33% 30.31 in 10.0 mi SSW 10.4 mph 18.4 mph N/A   Clear
3:53 PM 66.0 °F - 35.1 °F 32% 30.29 in 10.0 mi South 9.2 mph - N/A   Clear
4:53 PM 66.0 °F - 34.0 °F 30% 30.27 in 10.0 mi South 11.5 mph 24.2 mph N/A   Clear
5:53 PM 66.0 °F - 34.0 °F 30% 30.26 in 10.0 mi South 12.7 mph 19.6 mph N/A   Clear
6:53 PM 64.0 °F - 35.1 °F 34% 30.26 in 10.0 mi SSW 4.6 mph - N/A   Clear
7:53 PM 60.1 °F - 35.1 °F 39% 30.27 in 10.0 mi South 5.8 mph - N/A   Clear
8:53 PM 57.0 °F - 35.1 °F 44% 30.29 in 10.0 mi South 3.5 mph - N/A   Clear
9:53 PM 57.0 °F - 33.1 °F 40% 30.29 in 10.0 mi Calm Calm - N/A   Clear
10:53 PM 54.0 °F - 34.0 °F 47% 30.28 in 10.0 mi Calm Calm - N/A   Clear
11:53 PM 52.0 °F - 34.0 °F 50% 30.27 in 10.0 mi Calm Calm - N/A   Clear